• In Uzbekistan
  • List of Countries
  • For 7 days
  • Water Temperature
  • Satellite Maps
  • Weather Map
  • Weather Widgets
  • user-avatar
    Login

    Hourly Weather Sokole

    Today, 24 September, Monday

    Time Temperature Precipitation Wind Pressure Humidity
    00:00 +11°C° 0.1 mm 9 mps 717 mmHg 62%
    01:00 +12°C° 0.1 mm 9 mps 716 mmHg 66%
    02:00 +13°C° 0 mm 5 mps 715 mmHg 75%
    03:00 +12°C° 1.4 mm 5 mps 715 mmHg 80%
    04:00 +11°C° 1.4 mm 6 mps 715 mmHg 85%
    05:00 +10°C° 1.4 mm 6 mps 715 mmHg 90%
    06:00 +9°C° 0.7 mm 6 mps 717 mmHg 90%
    07:00 +8°C° 0.7 mm 6 mps 718 mmHg 89%
    08:00 +8°C° 0.7 mm 6 mps 719 mmHg 89%
    09:00 +8°C° 0.1 mm 6 mps 720 mmHg 87%
    10:00 +7°C° 0.1 mm 6 mps 721 mmHg 85%
    11:00 +7°C° 0.1 mm 6 mps 722 mmHg 83%
    12:00 +8°C° 0.1 mm 6 mps 723 mmHg 79%
    13:00 +8°C° 0.1 mm 6 mps 723 mmHg 74%
    14:00 +9°C° 0.1 mm 7 mps 724 mmHg 70%
    15:00 +8°C° 0.1 mm 6 mps 724 mmHg 68%
    16:00 +8°C° 0.1 mm 6 mps 725 mmHg 66%
    17:00 +8°C° 0.1 mm 6 mps 725 mmHg 64%
    18:00 +7°C° 0 mm 5 mps 725 mmHg 67%
    19:00 +6°C° 0 mm 4 mps 726 mmHg 71%
    20:00 +5°C° 0 mm 4 mps 726 mmHg 75%
    21:00 +4°C° 0 mm 4 mps 726 mmHg 76%
    22:00 +4°C° 0 mm 4 mps 727 mmHg 77%
    23:00 +4°C° 0 mm 4 mps 727 mmHg 78%

    Tomorrow, 25 September, Tuesday

    Time Temperature Precipitation Wind Pressure Humidity
    00:00 +4°C° 0.2 mm 4 mps 727 mmHg 81%
    01:00 +4°C° 0.2 mm 4 mps 728 mmHg 83%
    02:00 +4°C° 0.2 mm 4 mps 728 mmHg 86%
    03:00 +4°C° 0.1 mm 4 mps 728 mmHg 87%
    04:00 +3°C° 0.1 mm 4 mps 729 mmHg 89%
    05:00 +3°C° 0.1 mm 3 mps 729 mmHg 90%
    06:00 +3°C° 0 mm 4 mps 730 mmHg 88%
    07:00 +3°C° 0 mm 4 mps 730 mmHg 86%
    08:00 +4°C° 0 mm 4 mps 731 mmHg 84%
    09:00 +5°C° 0.1 mm 5 mps 732 mmHg 78%
    10:00 +6°C° 0.1 mm 5 mps 732 mmHg 71%
    11:00 +7°C° 0.1 mm 5 mps 733 mmHg 64%
    12:00 +8°C° 0.1 mm 6 mps 733 mmHg 59%
    13:00 +9°C° 0.1 mm 6 mps 733 mmHg 54%
    14:00 +10°C° 0.1 mm 6 mps 733 mmHg 49%
    15:00 +9°C° 0.1 mm 6 mps 733 mmHg 52%
    16:00 +9°C° 0.1 mm 5 mps 733 mmHg 55%
    17:00 +8°C° 0.1 mm 5 mps 734 mmHg 57%
    18:00 +7°C° 0 mm 4 mps 734 mmHg 64%
    19:00 +5°C° 0 mm 3 mps 735 mmHg 71%
    20:00 +5°C° 0 mm 2 mps 735 mmHg 78%
    21:00 +4°C° 0 mm 2 mps 736 mmHg 79%
    22:00 +4°C° 0 mm 2 mps 736 mmHg 79%
    23:00 +3°C° 0 mm 2 mps 737 mmHg 80%

    Day after tomorrow, 26 September, Wednesday

    Time Temperature Precipitation Wind Pressure Humidity
    00:00 +2°C° 0 mm 2 mps 737 mmHg 82%
    01:00 +2°C° 0 mm 2 mps 737 mmHg 83%
    02:00 +3°C° 0 mm 1 mps 737 mmHg 85%
    03:00 +2°C° 0 mm 1 mps 737 mmHg 86%
    04:00 +2°C° 0 mm 1 mps 737 mmHg 87%
    05:00 +2°C° 0 mm 1 mps 738 mmHg 88%
    06:00 +3°C° 0 mm 1 mps 738 mmHg 84%
    07:00 +4°C° 0 mm 1 mps 738 mmHg 80%
    08:00 +5°C° 0 mm 1 mps 738 mmHg 76%
    09:00 +7°C° 0 mm 1 mps 738 mmHg 66%
    10:00 +9°C° 0 mm 1 mps 738 mmHg 56%
    11:00 +10°C° 0 mm 2 mps 738 mmHg 46%
    12:00 +12°C° 0 mm 2 mps 738 mmHg 43%
    13:00 +12°C° 0 mm 2 mps 738 mmHg 40%
    14:00 +13°C° 0 mm 1 mps 737 mmHg 38%
    15:00 +13°C° 0 mm 1 mps 737 mmHg 42%
    16:00 +12°C° 0 mm 1 mps 736 mmHg 46%
    17:00 +12°C° 0 mm 1 mps 736 mmHg 50%
    18:00 +10°C° 0 mm 1 mps 735 mmHg 53%
    19:00 +8°C° 0 mm 2 mps 735 mmHg 56%
    20:00 +6°C° 0 mm 2 mps 735 mmHg 58%
    21:00 +6°C° 0 mm 2 mps 735 mmHg 58%
    22:00 +6°C° 0 mm 2 mps 735 mmHg 57%
    23:00 +7°C° 0 mm 3 mps 735 mmHg 57%

    27 September, Thursday

    Time Temperature Precipitation Wind Pressure Humidity
    00:00 +7°C° 0 mm 3 mps 735 mmHg 58%
    01:00 +7°C° 0 mm 3 mps 734 mmHg 59%
    02:00 +7°C° 0 mm 3 mps 734 mmHg 60%
    03:00 +5°C° 0 mm 3 mps 734 mmHg 60%
    04:00 +5°C° 0 mm 3 mps 733 mmHg 60%
    05:00 +5°C° 0 mm 3 mps 733 mmHg 61%
    06:00 +5°C° 0 mm 3 mps 733 mmHg 59%
    07:00 +6°C° 0 mm 4 mps 733 mmHg 58%
    08:00 +6°C° 0 mm 4 mps 733 mmHg 56%
    09:00 +8°C° 0 mm 4 mps 733 mmHg 53%
    10:00 +10°C° 0 mm 4 mps 733 mmHg 49%
    11:00 +12°C° 0 mm 4 mps 733 mmHg 46%
    12:00 +13°C° 0 mm 4 mps 733 mmHg 46%
    13:00 +14°C° 0 mm 4 mps 732 mmHg 46%
    14:00 +15°C° 0 mm 4 mps 732 mmHg 46%
    15:00 +15°C° 0 mm 4 mps 732 mmHg 49%
    16:00 +16°C° 0 mm 3 mps 731 mmHg 52%
    17:00 +14°C° 0 mm 3 mps 731 mmHg 56%
    18:00 +13°C° 0 mm 3 mps 731 mmHg 58%
    19:00 +11°C° 0 mm 3 mps 731 mmHg 60%
    20:00 +9°C° 0 mm 2 mps 731 mmHg 62%
    21:00 +9°C° 0 mm 2 mps 731 mmHg 62%
    22:00 +9°C° 0 mm 2 mps 731 mmHg 62%
    23:00 +9°C° 0 mm 2 mps 731 mmHg 62%

    28 September, Friday

    Time Temperature Precipitation Wind Pressure Humidity
    00:00 +9°C° 0 mm 2 mps 731 mmHg 61%
    01:00 +10°C° 0 mm 2 mps 731 mmHg 59%
    02:00 +10°C° 0 mm 2 mps 730 mmHg 58%
    03:00 +9°C° 0 mm 2 mps 730 mmHg 61%
    04:00 +9°C° 0 mm 2 mps 729 mmHg 63%
    05:00 +8°C° 0 mm 2 mps 729 mmHg 66%
    06:00 +9°C° 0 mm 2 mps 729 mmHg 65%
    07:00 +10°C° 0 mm 2 mps 729 mmHg 64%
    08:00 +10°C° 0 mm 2 mps 728 mmHg 63%
    09:00 +12°C° 0 mm 3 mps 728 mmHg 58%
    10:00 +14°C° 0 mm 4 mps 728 mmHg 53%
    11:00 +18°C° 0 mm 4 mps 728 mmHg 48%
    12:00 +18°C° 0 mm 4 mps 727 mmHg 47%
    13:00 +19°C° 0 mm 4 mps 726 mmHg 45%
    14:00 +20°C° 0 mm 5 mps 726 mmHg 43%
    15:00 +19°C° 0 mm 4 mps 725 mmHg 46%
    16:00 +18°C° 0 mm 4 mps 725 mmHg 49%
    17:00 +17°C° 0 mm 3 mps 724 mmHg 52%
    18:00 +16°C° 0 mm 3 mps 724 mmHg 54%
    19:00 +14°C° 0 mm 3 mps 724 mmHg 56%
    20:00 +12°C° 0 mm 3 mps 724 mmHg 58%
    21:00 +13°C° 0 mm 3 mps 724 mmHg 59%
    22:00 +13°C° 0 mm 3 mps 724 mmHg 59%
    23:00 +13°C° 0 mm 3 mps 724 mmHg 60%

    29 September, Saturday

    Time Temperature Precipitation Wind Pressure Humidity
    00:00 +13°C° 0 mm 2 mps 724 mmHg 63%
    01:00 +13°C° 0 mm 2 mps 724 mmHg 66%
    02:00 +13°C° 0 mm 2 mps 723 mmHg 69%
    03:00 +12°C° 0 mm 2 mps 723 mmHg 74%
    04:00 +12°C° 0 mm 2 mps 724 mmHg 78%
    05:00 +10°C° 0 mm 2 mps 724 mmHg 82%
    06:00 +10°C° 0.5 mm 2 mps 724 mmHg 85%
    07:00 +10°C° 0.5 mm 3 mps 724 mmHg 88%
    08:00 +10°C° 0.5 mm 3 mps 724 mmHg 91%
    09:00 +8°C° 1.1 mm 4 mps 725 mmHg 90%
    10:00 +8°C° 1.1 mm 4 mps 725 mmHg 89%
    11:00 +8°C° 1.1 mm 4 mps 726 mmHg 87%
    12:00 +8°C° 0.3 mm 5 mps 726 mmHg 82%
    13:00 +9°C° 0.3 mm 5 mps 726 mmHg 78%
    14:00 +9°C° 0.3 mm 6 mps 727 mmHg 73%
    15:00 +9°C° 0.1 mm 5 mps 727 mmHg 71%
    16:00 +9°C° 0.1 mm 5 mps 728 mmHg 70%
    17:00 +9°C° 0.1 mm 5 mps 728 mmHg 69%
    18:00 +8°C° 0 mm 5 mps 728 mmHg 70%
    19:00 +7°C° 0 mm 5 mps 729 mmHg 71%
    20:00 +6°C° 0 mm 4 mps 729 mmHg 72%
    21:00 +5°C° 0 mm 4 mps 730 mmHg 72%
    22:00 +5°C° 0 mm 4 mps 730 mmHg 73%
    23:00 +3°C° 0 mm 5 mps 731 mmHg 73%
    Show more